AirNav   Pilot Hours Calculator
 
 714 users online  

MU54 General John J Pershing Memorial Hospital Heliport
Brookfield, Missouri, USA

GOING TO BROOKFIELD?


FAA INFORMATION EFFECTIVE 26 MARCH 2020

Location

FAA Identifier: MU54
Lat/Long: 39-46-27.3300N 093-04-06.3500W
39-46.455500N 093-04.105833W
39.7742583,-93.0684306
(estimated)
Elevation: 780 ft. / 238 m (estimated)
Variation: 04E (1985)
Time zone: UTC -5 (UTC -6 during Standard Time)
Zip code: 64628

Heliport Operations

Heliport use: Private use, MEDICAL.
Activation date: 06/1985
Control tower: no
ARTCC: KANSAS CITY CENTER
FSS: COLUMBIA FLIGHT SERVICE STATION
Attendance: CONTINUOUS
Wind indicator: yes
Segmented circle: no

Heliport Communications

WX AWOS-AV at MO8 (2.6 nm E): 118.425 (660-258-2151)
WX AWOS-3 at CHT (20 nm W): 118.175 (660-646-0713)

Nearby radio navigation aids

VOR radial/distance  VOR name  Freq  Var
MCMr279/28.0MACON VOR/DME112.9006E
IRKr219/30.8KIRKSVILLE VORTAC114.6006E
BQSr074/38.2BRAYMER VOR/DME111.2003E

 
NDB name  Hdg/Dist  Freq  Var  ID
TRENTON124/30.340003ETRX - .-. -..-

Heliport Services

Runway Information

Helipad H1

Dimensions: 40 x 40 ft. / 12 x 12 m
Surface: concrete
Latitude: 39-46.455500N
Longitude: 093-04.105833W
Elevation: 780.0 ft.
Traffic pattern: leftleft

Heliport Ownership and Management from official FAA records

Ownership: Privately-owned
Owner: GEN JOHN J PERSHING HOSPITAL
130 E LOCKLING AVE
BROOKFIELD, MO 64628
Phone (660) 258-2222
Manager: PHIL HAMILTON, CEO
130 E LOCKLING AVE
BROOKFIELD, MO 64628
Phone (660) 258-2222

Additional Remarks

FOR CD CTC KANSAS CITY ARTCC AT 913-254-8508.

Instrument Procedures

There are no published instrument procedures at MU54.

Some nearby airports with instrument procedures:

MO8 - North Central Missouri Regional Airport (3 nm E)
KCHT - Chillicothe Municipal Airport (20 nm W)
K89 - Macon-Fower Memorial Airport (28 nm E)
KTRX - Trenton Municipal Airport (30 nm NW)
KIRK - Kirksville Regional Airport (31 nm NE)
 
Loc | Ops | Rwys | IFR | FBO | Links
Com | Nav | Svcs | Stats | Notes

Kansas City Aviation Department
 
Area around MU54 (General John J Pershing Memorial Hospital Heliport)
 
Road maps at: MapQuest Bing Google
 
Aerial photo
No photo
 
Sectional chart

 
Airport distance calculator
Flying to General John J Pershing Memorial Hospital Heliport? Find the distance to fly.

From to MU54

Sunrise and sunset
Times for 02-Apr-2020
 Local
(UTC-5)
 Zulu
(UTC)
Morning civil twilight06:2711:27
Sunrise06:5411:54
Sunset19:3700:37
Evening civil twilight20:0401:04

Current date and time
Zulu (UTC)  03-Apr-2020 02:34:49
Local (UTC-5)  02-Apr-2020 21:34:49
 
METAR
KCDJ 
24nm W 
030152Z AUTO 11006KT 18/07 A2989 RMK AO1 SLP118 T01780072
KIRK 
31nm NE 
030155Z AUTO 08009KT 10SM OVC080 14/08 A2994 RMK AO2 SLP141 T01440078
KMHL 
41nm S 
030215Z AUTO 29007KT 10SM BKN075 OVC085 17/09 A2992 RMK AO2 TSNO PWINO
TAF
NOTAMs
Click for the latest NOTAMs
NOTAMs are issued by the DoD/FAA and will open in a separate window not controlled by AirNav.

 

 
 

Would you like to see your business listed on this page?

 If your business provides an interesting product or service to pilots, flight crews, aircraft, or users of the General John J Pershing Memorial Hospital Heliport, you should consider listing it here.  To start the listing process, click on the button below
 
Add a business
 

Other Pages about General John J Pershing Memorial Hospital Heliport

Update a link
 
Copyright © AirNav, LLC. All rights reserved. Privacy Policy  Contact